Theta_e
319 318 319 320 320 320 320 321 321 321 321 322 322 321 321 322 323 323 323 323 324 324 324 320 320 322 323 323 323 321 315 307 304 303 301 305 316 321 321 321 322 321 319 309 308 308 304 305 305 307 306 305 301 303 303 303 300 306 300 297 292 293 291 290 292 294 296 295 293 293 295 294 291 292 292 294 292 291 290 289 290 291 291 292 293 294 295 295
318 318 319 319 318 320 321 320 321 322 322 322 322 322 322 323 323 323 324 325 326 322 322 319 323 322 321 321 322 316 310 308 303 301 301 312 318 320 321 320 320 318 315 305 303 305 304 302 304 306 304 300 305 301 305 300 303 299 297 295 290 291 290 291 292 294 296 293 293 293 293 294 290 292 293 291 291 292 290 289 290 288 290 292 292 294 294 294
318 319 318 318 319 320 320 320 321 321 321 322 322 322 323 323 323 324 324 324 323 320 319 319 322 322 322 322 320 315 309 308 302 297 303 317 318 318 321 319 319 316 303 303 303 304 303 301 304 304 302 300 300 298 302 297 302 296 298 291 289 291 290 291 293 292 295 295 293 292 291 291 290 291 293 292 291 292 290 290 289 288 288 290 291 292 293 293
318 319 317 319 319 319 319 320 320 320 321 322 321 322 322 323 323 323 324 324 322 322 322 318 319 319 318 317 315 310 308 307 296 299 306 317 318 317 318 318 317 308 302 302 302 302 300 303 303 304 301 298 298 299 295 295 299 295 295 292 292 292 293 290 292 291 293 294 293 293 293 291 290 291 292 293 294 290 290 290 289 288 289 290 291 292 292 291
318 317 317 318 317 318 318 319 320 320 321 320 321 321 322 322 322 322 324 325 326 322 322 322 320 317 315 317 311 311 305 300 296 303 305 315 317 317 316 316 314 305 302 302 304 303 304 303 302 300 299 295 298 297 293 295 296 292 288 291 292 292 290 290 290 290 291 293 294 293 292 289 291 291 290 294 292 288 288 290 291 291 292 291 291 290 290 290
317 317 317 317 317 318 318 318 319 320 320 320 320 321 322 322 322 322 322 324 325 321 321 322 323 314 316 314 314 312 304 289 299 301 313 315 316 315 315 313 313 305 303 305 304 304 304 303 302 297 295 294 293 292 293 295 296 289 289 290 291 292 290 289 290 288 290 292 291 290 290 292 290 288 289 288 287 288 290 291 292 291 291 291 291 290 290 290
317 317 317 317 317 317 318 318 319 319 320 320 321 321 322 322 322 322 323 323 323 321 321 320 321 318 317 318 310 304 297 295 300 305 310 314 314 310 313 311 310 305 307 305 304 303 302 300 299 296 295 293 293 292 294 294 297 293 287 289 289 291 288 289 289 289 291 291 288 291 291 290 291 287 289 287 288 289 290 291 291 291 291 290 289 290 290 290
317 317 317 317 317 317 317 319 319 319 320 321 320 321 321 321 321 322 323 322 323 320 319 319 320 318 317 311 310 299 297 295 300 304 309 311 306 305 308 306 304 305 302 300 302 302 301 299 297 298 295 293 293 293 294 292 293 290 287 289 288 289 288 289 290 290 290 289 291 291 290 288 290 288 289 286 288 289 289 291 290 289 289 289 289 288 289 289
317 316 317 317 317 317 318 319 319 319 320 321 321 321 321 320 321 323 321 319 320 319 316 316 316 319 315 314 307 299 294 300 302 303 304 301 301 302 304 302 305 303 301 302 301 301 302 295 297 299 292 292 294 293 293 292 287 290 289 290 289 289 290 290 290 289 289 289 290 290 288 288 289 291 287 287 287 288 289 289 289 289 289 289 289 289 288 288
316 316 317 317 317 317 317 318 319 320 320 321 321 321 320 319 322 321 320 319 321 321 318 316 314 313 316 311 305 294 299 300 304 304 302 301 302 302 302 302 303 303 301 300 301 302 300 299 298 298 296 293 294 291 294 293 288 291 290 290 289 289 290 290 289 288 289 289 290 288 287 287 288 287 285 288 288 289 289 289 289 289 289 289 289 290 290 289
316 316 316 316 316 317 317 318 318 319 320 321 320 321 319 319 320 320 321 321 319 320 319 318 316 314 307 306 298 293 302 302 304 303 301 302 301 300 299 300 302 303 302 300 298 298 300 300 300 299 297 292 293 291 291 290 292 291 291 291 290 291 290 290 290 289 290 289 288 290 287 289 289 289 285 287 288 289 288 289 288 288 289 289 289 289 290 290
316 316 316 315 316 316 317 317 317 318 320 320 321 319 318 317 319 320 320 321 320 318 318 316 316 315 309 300 296 295 303 301 304 303 303 302 300 299 304 301 302 302 301 298 298 300 298 297 297 298 291 296 288 291 289 292 291 290 290 288 289 291 289 289 288 289 290 288 288 287 289 287 285 283 286 287 288 288 288 288 288 288 288 289 289 289 290 291
315 315 315 315 316 316 317 317 317 318 318 320 320 317 318 317 319 320 319 320 322 319 318 316 314 316 309 297 297 303 302 304 303 303 302 303 303 299 303 304 302 302 302 299 298 302 300 300 300 294 295 294 291 289 291 292 289 291 291 290 289 289 287 288 290 290 289 288 288 287 284 284 284 285 286 287 287 288 288 287 288 288 288 289 289 290 290 291
315 315 315 315 316 316 316 316 317 317 317 319 317 316 318 317 319 321 318 318 319 321 315 313 317 310 303 295 300 304 305 304 305 302 300 303 302 303 302 305 303 303 305 302 301 301 301 300 298 295 296 293 289 295 291 290 291 289 287 290 287 288 284 287 287 288 288 287 289 288 284 284 285 286 286 287 287 287 287 288 288 288 289 289 290 290 290 291
316 315 315 315 315 315 316 316 316 317 317 317 317 315 317 316 317 320 319 316 316 319 315 318 315 312 299 296 305 303 311 305 302 300 300 300 299 300 300 302 301 302 301 303 301 303 303 303 299 294 291 292 294 292 290 289 289 288 287 286 287 287 284 286 288 287 284 288 290 288 285 284 284 285 286 286 287 287 287 287 288 288 289 289 290 290 291 291
315 315 315 315 315 316 316 315 316 316 315 316 317 314 315 317 316 318 317 316 315 315 318 314 307 306 299 295 301 312 303 298 298 302 301 300 299 298 298 299 302 306 303 302 304 302 304 301 293 293 292 294 291 291 289 290 289 289 289 284 284 285 284 285 286 288 287 285 290 288 285 284 284 285 286 286 286 287 287 287 288 288 289 290 290 290 290 291
315 314 315 314 315 315 316 315 315 314 314 316 317 315 313 314 315 317 315 310 308 313 312 303 308 307 295 303 308 299 296 300 301 302 301 300 300 299 301 302 301 301 305 305 305 306 302 299 294 295 294 290 288 287 290 288 286 286 287 284 282 282 284 284 286 288 288 288 285 288 285 282 283 285 286 286 286 287 287 288 288 289 290 290 291 291 291 291
314 314 314 314 314 315 316 315 314 313 315 315 318 316 316 316 313 311 312 312 310 308 307 310 303 304 296 306 292 294 299 298 301 300 300 301 298 300 300 297 297 301 305 304 302 297 297 295 297 290 291 289 288 289 289 282 283 284 285 284 283 283 283 282 283 284 286 287 285 285 284 282 284 285 286 286 286 287 287 287 288 289 289 290 290 291 291 291
314 314 314 314 314 315 316 314 313 313 313 314 317 316 315 312 312 307 303 305 309 303 299 296 297 291 287 294 300 300 298 300 299 301 299 299 300 299 302 302 301 301 297 296 293 296 295 294 294 290 285 284 283 283 284 282 284 283 283 284 284 283 282 282 283 285 285 284 284 284 283 283 284 285 286 287 287 288 288 289 289 289 289 289 290 290 291 291
314 313 313 314 314 314 315 314 312 311 312 315 314 310 314 308 305 301 301 301 295 297 298 298 300 300 301 298 296 299 301 301 299 300 300 301 299 303 299 299 301 297 293 290 292 292 294 287 284 283 283 283 283 282 282 282 283 284 284 284 283 283 282 283 284 285 284 284 282 283 283 283 284 284 285 286 288 288 288 287 288 288 288 289 289 289 290 290
313 313 313 313 313 314 315 314 310 309 309 312 316 314 300 306 302 291 293 295 294 296 299 297 297 297 297 298 299 297 296 300 302 299 299 302 296 300 295 298 298 292 289 287 290 294 297 286 283 283 283 283 282 282 282 283 284 284 284 284 283 284 282 282 283 285 285 284 282 283 284 283 284 285 285 287 287 286 287 287 287 287 288 289 289 289 290 290
313 313 313 313 313 314 315 314 309 311 308 311 309 302 298 297 299 299 301 292 296 296 298 296 296 297 297 297 298 296 297 296 298 297 301 302 299 297 293 294 291 288 290 290 292 290 286 283 284 284 284 283 282 282 283 284 283 283 284 284 284 282 283 283 284 285 285 285 282 283 283 283 283 284 285 286 286 287 287 287 286 287 288 288 289 289 289 290
313 313 313 313 313 313 314 312 309 308 307 306 303 301 299 298 296 295 300 297 294 296 297 297 296 296 297 300 298 298 295 289 289 295 295 300 298 292 293 291 289 289 291 293 290 289 285 285 285 284 283 283 284 284 284 284 286 285 285 284 283 282 282 282 283 284 285 284 283 283 283 282 283 284 285 285 286 286 286 286 287 288 287 287 288 288 288 289
312 312 311 311 312 313 314 311 306 305 300 301 300 298 297 296 296 295 301 295 293 293 297 294 295 295 294 295 296 297 294 291 293 291 298 298 293 293 292 290 288 288 285 287 287 285 283 284 285 284 284 284 284 284 284 285 285 284 284 284 283 282 282 282 283 283 284 285 285 283 283 282 283 283 283 285 286 285 286 287 287 288 289 289 290 291 290 288
312 312 311 312 312 313 314 311 304 298 295 301 299 298 294 294 295 294 301 292 296 296 294 296 292 296 295 298 300 296 292 294 292 293 297 296 293 295 289 288 290 284 286 288 288 285 283 284 284 283 284 284 285 284 282 283 285 283 281 282 281 281 282 282 282 283 283 282 283 282 280 281 282 282 283 284 285 285 285 286 286 287 288 288 288 288 290 291
312 312 311 311 309 311 308 309 298 300 303 299 298 294 293 293 295 293 301 291 288 292 300 293 299 295 300 297 297 292 295 291 293 294 298 295 295 293 290 289 291 285 284 287 285 285 284 285 284 283 284 284 284 282 282 283 285 284 281 282 282 281 281 281 282 282 282 280 281 283 279 278 282 281 282 283 283 283 285 285 286 286 287 288 288 288 289 289
311 312 310 310 309 307 309 302 295 297 303 297 297 294 293 295 295 298 296 291 288 290 291 297 299 295 300 296 293 294 289 290 299 297 295 297 293 295 291 287 290 287 287 285 289 284 287 286 285 284 284 285 285 284 282 282 283 283 281 282 282 281 281 282 283 283 282 282 282 281 282 279 280 282 283 282 282 283 284 285 286 286 287 287 288 288 289 289
311 311 310 309 306 306 302 297 300 302 294 294 295 293 294 295 297 297 298 282 280 296 290 296 295 304 300 295 299 294 290 292 291 294 295 296 297 295 291 286 286 286 286 287 283 285 284 283 283 283 285 285 282 282 283 283 282 282 282 282 282 282 282 282 283 283 282 281 282 282 282 279 280 281 281 282 280 282 283 284 285 286 287 287 288 289 289 289
310 310 309 308 307 303 301 302 301 296 294 294 292 293 295 296 296 298 291 282 289 289 302 292 300 298 294 300 295 292 292 292 289 291 296 298 297 294 289 287 288 288 289 289 285 284 284 284 283 283 284 282 283 283 284 282 283 282 283 284 283 283 283 283 284 283 281 280 279 279 280 278 280 281 281 281 281 281 284 285 285 286 287 288 288 289 289 290
310 308 310 307 308 307 301 301 299 295 294 292 293 294 296 297 299 291 284 277 288 285 293 294 296 290 292 293 290 291 290 289 288 291 293 289 293 295 290 290 289 289 286 288 286 285 284 286 287 284 283 283 284 284 282 284 282 284 284 284 283 283 283 282 283 283 282 278 279 278 279 278 276 281 283 281 282 284 285 285 286 286 287 288 288 289 289 289
309 307 307 306 303 297 296 299 296 293 292 294 295 298 299 301 293 287 274 284 292 288 292 287 287 291 288 289 288 290 289 288 289 290 290 292 290 292 291 289 293 288 287 287 285 285 285 286 285 285 285 285 284 283 283 283 284 284 284 283 282 281 282 282 281 282 277 277 278 278 277 278 275 280 283 285 284 284 285 284 285 286 286 287 288 289 289 289
308 307 305 304 300 298 299 298 294 293 294 295 299 302 302 291 293 286 281 293 284 286 286 286 286 283 286 286 285 285 284 289 287 286 285 285 284 284 282 282 281 284 284 283 284 285 284 283 284 285 285 284 283 284 284 283 285 284 282 283 280 280 280 278 280 277 277 276 278 277 278 277 278 282 284 284 285 285 285 286 286 286 287 288 288 289 290 290
307 306 303 302 303 300 298 294 294 294 295 298 300 303 295 290 278 283 281 283 283 282 285 285 285 285 282 285 284 283 286 284 287 286 285 284 285 281 284 283 281 281 282 282 283 284 283 283 285 285 284 286 285 284 284 284 285 283 282 281 280 277 275 273 276 275 277 279 277 277 277 276 282 283 285 284 285 286 286 286 287 286 286 287 288 289 289 290
305 304 302 300 299 297 297 295 294 296 298 300 299 295 292 286 280 286 279 284 282 283 285 284 285 285 284 285 283 282 286 283 286 286 287 283 284 283 285 285 284 283 283 283 282 280 282 282 283 283 282 285 284 282 281 281 282 282 281 281 281 279 275 271 274 274 275 276 278 275 275 277 277 281 283 284 284 284 284 284 285 285 286 286 287 287 287 288
303 300 300 299 298 295 294 291 296 299 300 301 298 293 285 281 280 282 283 283 282 284 286 282 284 286 284 284 283 283 284 284 284 284 284 284 282 282 281 282 284 283 281 283 280 281 278 281 282 284 283 284 282 282 282 281 281 282 282 283 282 278 281 277 274 275 273 274 276 276 277 280 281 283 284 284 285 285 285 285 285 285 286 286 286 287 289 289
305 302 300 300 300 296 292 295 296 298 298 302 294 287 287 283 283 284 284 286 285 285 283 284 287 285 283 285 282 282 285 284 284 284 282 282 281 282 281 282 281 281 281 282 280 282 281 281 282 283 283 283 282 283 282 282 280 282 283 280 279 281 279 274 270 268 268 272 275 278 279 282 284 282 284 283 284 285 285 285 285 286 287 286 286 288 289 289
302 301 300 299 300 296 293 293 296 296 299 299 293 286 283 279 281 282 286 286 284 285 285 285 284 284 282 282 283 283 284 285 283 285 283 280 282 281 281 282 282 282 281 282 282 281 280 282 281 282 281 282 282 282 282 282 282 283 281 280 279 278 277 277 275 272 274 272 275 274 276 279 279 277 283 283 283 284 285 285 285 286 286 286 288 289 289 289
302 300 299 298 298 295 292 294 296 298 300 293 285 285 278 280 282 284 285 284 283 283 285 285 283 282 282 284 284 283 285 284 284 284 282 282 280 283 281 281 282 282 282 283 282 280 280 281 281 280 280 282 282 283 283 285 284 283 281 283 279 277 277 278 275 271 272 271 273 275 274 276 279 280 282 282 283 284 285 285 285 286 287 287 288 288 289 289
296 301 297 296 296 295 296 294 298 303 295 288 283 288 281 282 283 283 284 284 282 282 286 282 283 281 283 283 283 281 280 285 281 282 282 282 282 283 282 282 281 282 282 282 282 281 281 280 281 279 281 281 282 283 280 282 284 282 284 282 281 281 278 277 276 276 276 273 272 274 273 277 280 282 283 283 284 285 285 285 285 286 287 287 287 287 288 288
299 297 294 295 295 294 295 296 297 293 292 289 284 280 282 283 284 284 282 282 283 283 284 283 279 283 281 281 281 284 281 282 283 282 283 282 282 282 281 283 281 283 283 283 281 280 281 279 280 281 279 279 281 280 280 280 280 282 282 281 280 279 279 278 275 275 275 272 272 271 272 280 283 284 284 285 285 285 285 285 286 286 287 287 287 288 288 288
291 294 295 294 294 292 296 295 286 283 282 277 278 279 280 282 284 283 284 281 283 282 283 284 283 285 281 282 282 279 282 281 281 283 282 281 283 282 281 281 281 282 282 282 283 281 280 280 279 281 282 281 279 279 278 278 278 279 280 280 280 279 278 275 274 272 270 274 270 270 273 280 284 283 284 285 284 283 284 284 284 286 286 287 287 288 288 287
296 288 296 294 293 295 299 290 281 276 285 283 283 282 283 287 284 283 282 281 281 284 283 283 282 281 281 281 281 280 282 283 281 282 281 283 280 282 280 278 280 281 281 282 281 282 280 280 279 280 280 279 278 278 277 277 275 276 278 280 279 278 278 278 273 273 272 271 270 272 270 278 283 283 283 284 284 284 284 283 283 285 286 286 287 288 288 288
291 293 295 293 294 298 294 284 284 283 282 281 282 282 281 283 282 282 283 282 282 282 282 283 282 282 280 282 279 279 279 283 281 282 280 281 280 281 280 279 279 281 281 282 280 281 282 279 279 280 275 277 277 277 275 275 277 275 275 275 278 279 278 278 278 277 276 270 271 272 270 278 283 283 283 283 284 284 284 283 284 285 286 286 287 287 287 287
291 292 301 298 295 298 297 287 284 280 280 280 281 280 281 283 282 282 283 282 281 283 283 281 281 281 282 279 281 280 280 281 280 281 281 279 282 280 279 279 280 282 281 282 281 281 279 279 279 279 280 278 277 276 276 275 276 278 280 278 276 276 275 270 271 272 274 272 275 274 272 280 283 283 284 283 284 284 285 285 285 284 286 286 286 287 287 287
291 291 290 294 296 298 294 288 287 283 282 280 279 279 281 282 282 282 282 283 282 281 283 283 282 283 281 280 279 279 277 280 280 278 280 280 282 281 280 278 281 283 282 283 284 283 281 280 279 278 275 274 275 276 279 279 279 279 277 276 275 277 273 274 275 274 273 272 271 272 276 283 284 283 284 285 285 285 286 287 287 286 286 286 287 287 287 287
292 288 291 293 292 290 286 286 287 286 281 278 280 280 281 282 281 281 283 282 282 281 283 283 282 283 280 280 281 279 279 279 280 279 280 279 280 281 279 279 279 281 282 283 282 282 277 276 279 279 280 280 281 280 279 280 278 276 276 275 276 276 277 277 277 274 275 272 271 276 278 280 281 284 284 286 286 285 285 286 286 286 287 287 287 287 287 287
289 289 286 287 290 289 286 286 284 286 286 285 285 280 279 281 281 281 282 282 283 282 282 282 282 282 280 281 279 281 278 280 278 280 278 280 279 279 277 278 278 282 284 284 282 279 276 278 275 273 275 280 281 277 277 278 276 278 277 277 278 276 276 276 275 276 278 273 274 278 278 276 280 283 284 285 286 286 286 286 286 286 286 286 286 286 286 286
290 284 285 283 285 287 290 287 284 283 283 286 282 281 281 280 280 281 282 282 283 283 282 282 282 281 284 284 283 282 280 280 279 281 277 278 279 278 279 279 281 281 282 280 280 280 279 277 273 274 275 279 278 278 277 276 277 278 277 277 277 277 275 274 275 279 277 275 277 277 276 277 280 282 284 285 286 285 285 285 285 285 285 285 285 285 286 286
287 284 285 282 286 279 283 282 282 283 283 283 284 282 280 281 281 282 282 282 281 282 282 283 282 282 281 281 283 284 281 281 281 278 280 278 279 278 278 278 280 281 278 278 277 274 279 276 275 275 274 276 278 277 276 275 275 275 276 277 278 277 276 276 277 278 277 278 279 280 280 279 281 283 284 286 287 286 285 285 285 285 285 285 285 285 285 286
288 288 284 283 283 280 280 283 282 285 285 284 284 282 282 282 282 280 281 281 282 281 282 282 282 281 281 281 283 284 283 284 283 284 282 280 277 279 281 282 280 279 279 277 277 277 277 277 277 273 273 275 273 272 272 275 275 273 277 278 277 277 277 277 277 278 277 276 277 277 277 277 282 285 285 286 286 285 285 284 285 286 286 285 285 285 286 286
288 288 289 288 287 284 283 282 285 285 285 283 285 281 281 280 282 282 281 282 282 282 282 284 282 280 280 281 282 283 283 283 284 282 283 282 283 282 282 281 283 277 278 276 276 275 277 276 272 272 277 278 272 272 273 272 272 271 272 274 275 274 270 274 274 277 276 276 277 276 275 277 284 286 285 285 284 285 285 286 286 286 286 285 285 285 286 286
289 288 289 290 286 284 285 281 282 284 286 286 284 283 283 284 283 284 282 282 282 282 282 283 283 284 281 282 282 283 284 283 283 282 283 283 283 282 282 282 283 281 278 278 273 277 277 277 276 277 277 276 275 271 273 271 270 273 276 280 277 276 277 277 278 278 279 280 277 275 279 285 286 285 284 285 286 286 287 287 286 286 286 286 285 285 286 286
Wind_Speed
13 13 12 12 12 11 11 10 10 10 10 10 10 11 11 11 10 11 10 10 9 10 8 6 7 10 5 3 1 1 3 6 16 21 30 18 22 27 25 24 23 22 19 8 5 3 11 12 11 5 11 10 6 6 5 10 8 3 8 9 11 7 9 6 7 6 3 6 5 6 3 5 7 4 3 2 11 11 10 11 9 10 10 7 6 6 5 3
12 12 12 12 11 10 10 10 10 11 11 11 11 12 12 12 12 12 12 11 10 12 9 7 7 4 2 2 1 2 5 9 12 28 22 21 28 29 26 23 21 19 17 11 10 6 12 10 9 15 11 10 7 7 5 7 8 10 8 10 10 7 4 4 4 4 3 8 7 6 4 6 6 1 1 3 7 7 11 10 8 9 7 7 6 4 4 2
12 12 12 11 11 11 11 11 11 11 12 11 12 12 12 12 12 12 11 11 11 12 16 10 9 9 5 3 2 2 4 8 17 27 19 27 29 27 26 23 19 14 10 7 9 13 11 5 6 18 9 12 10 8 13 7 7 12 8 12 9 7 8 7 7 7 8 7 9 9 9 11 6 3 0 7 9 9 10 7 6 6 6 5 4 4 3 3
12 12 12 12 12 12 12 12 12 11 11 11 11 11 11 11 11 11 10 11 11 11 10 14 13 8 4 3 2 3 4 5 18 12 17 27 29 27 24 22 18 8 5 6 4 6 1 5 16 15 12 14 9 10 15 8 5 7 9 9 7 2 6 7 6 6 5 4 8 9 8 11 10 7 2 3 8 11 9 7 5 5 4 4 4 4 2 3
12 12 12 12 12 12 12 12 11 12 12 11 11 11 10 9 9 10 9 9 10 11 9 7 6 12 18 5 4 3 3 4 9 13 19 27 26 26 23 19 16 5 3 5 5 5 3 10 13 13 10 8 8 17 10 13 10 9 11 7 6 4 11 4 4 5 5 4 9 6 7 6 3 11 12 5 9 6 5 6 6 5 4 4 3 3 3 3
13 13 13 12 12 12 12 12 12 12 11 11 11 10 9 8 8 8 9 10 10 11 11 6 4 5 9 18 7 5 4 8 8 14 21 26 25 24 21 15 14 4 4 6 6 5 5 7 13 6 6 11 10 12 4 4 7 13 7 8 8 7 9 3 4 4 0 5 7 9 7 8 10 10 10 14 12 6 4 3 4 4 4 3 3 2 2 3
13 13 13 13 13 13 13 12 11 11 11 11 11 10 9 8 7 7 7 7 9 12 9 5 3 2 3 2 6 24 16 7 6 13 22 23 23 20 17 10 10 4 8 13 9 11 14 18 18 12 15 18 15 16 15 18 14 18 9 8 11 10 11 6 9 5 9 11 9 8 6 7 6 13 6 13 7 5 4 3 4 3 3 2 3 2 3 3
14 14 14 14 13 13 12 11 11 11 11 11 11 10 8 8 7 7 7 9 9 13 10 9 5 3 6 0 2 14 13 9 16 15 21 21 18 16 11 6 14 6 15 8 6 14 16 14 15 13 13 13 6 15 15 21 15 15 12 8 7 8 6 5 6 11 11 11 7 9 13 11 10 9 8 10 7 4 4 3 3 3 3 3 3 3 2 2
15 14 14 14 14 13 13 12 11 11 10 10 10 10 9 8 8 7 8 8 8 11 18 17 13 5 3 3 2 15 12 10 10 15 18 18 17 12 20 13 14 14 9 9 3 1 7 1 4 4 12 15 0 12 2 8 10 10 12 9 9 9 7 4 8 7 6 4 2 13 14 10 10 10 14 7 6 4 2 4 3 1 3 3 2 2 2 2
15 15 15 14 13 13 13 12 11 11 10 9 10 10 8 8 6 6 5 7 8 10 12 15 17 15 5 3 8 17 4 5 9 14 16 15 14 14 20 15 12 12 13 11 14 12 10 6 18 17 20 16 7 8 11 11 12 11 15 14 14 10 9 6 7 6 7 9 4 11 10 5 3 6 6 5 5 4 1 3 3 2 3 2 2 2 2 3
15 15 14 14 13 13 13 13 13 12 10 10 10 9 8 8 8 7 7 7 9 8 8 6 6 7 10 14 16 12 3 7 10 12 15 14 12 17 15 13 14 8 13 16 14 10 8 14 10 8 9 9 13 14 14 11 14 12 15 13 13 14 16 10 8 6 3 5 7 8 13 10 7 6 5 4 5 4 3 3 3 3 3 2 2 2 2 3
15 15 14 14 14 13 13 14 14 12 12 10 9 10 8 9 9 8 6 4 5 6 6 5 4 1 4 24 15 6 3 4 8 10 9 13 8 7 6 10 12 14 13 11 11 8 5 3 5 3 9 6 15 17 11 9 4 6 3 12 6 12 12 15 10 7 4 4 5 5 8 12 11 6 5 5 4 3 3 3 3 3 3 3 3 3 3 3
15 15 15 15 15 14 13 14 14 13 12 11 10 11 8 8 8 8 8 6 6 4 7 8 4 4 5 18 8 2 3 4 6 11 14 13 5 2 3 7 11 10 11 14 9 8 6 3 10 22 8 5 8 4 10 3 4 3 5 4 6 6 10 13 9 11 2 3 6 2 2 5 6 5 5 5 3 3 1 3 3 3 3 4 4 4 4 4
16 16 16 16 15 15 13 13 13 12 12 10 11 11 7 6 7 7 7 6 5 5 4 7 5 10 12 9 3 2 4 1 6 18 17 13 12 5 4 9 9 9 8 10 7 9 12 9 18 18 8 8 8 7 11 3 2 4 0 1 2 0 4 8 8 13 1 1 6 2 1 5 5 7 5 4 3 3 3 3 4 4 5 5 5 5 6 5
17 16 16 16 15 15 14 13 12 11 10 10 10 12 8 6 9 9 10 9 12 4 3 4 6 2 9 5 3 2 1 5 14 11 9 13 12 5 11 10 9 9 5 9 4 5 6 5 13 12 9 5 8 7 8 5 2 3 3 5 3 3 3 3 9 13 6 2 8 4 3 5 5 7 5 3 2 1 2 4 5 6 6 6 5 6 6 6
17 17 16 16 15 15 15 14 12 10 9 8 7 14 13 10 7 7 9 6 7 7 3 7 10 6 13 9 5 3 3 14 14 8 4 7 7 6 10 8 4 3 5 6 0 1 5 9 15 7 4 2 4 4 7 4 5 5 4 3 3 2 3 2 6 10 9 5 5 6 3 6 4 6 4 2 2 1 2 4 6 6 6 6 6 5 5 6
18 18 17 17 16 15 14 14 13 10 8 6 6 4 15 15 7 5 7 8 7 5 8 5 3 2 7 2 3 7 6 4 3 6 7 4 5 7 6 4 5 7 2 2 10 4 10 8 2 4 7 6 3 1 1 7 5 6 4 4 3 3 2 2 2 10 12 6 5 8 7 5 3 3 3 1 3 2 3 5 6 6 6 7 6 6 7 7
19 18 17 16 16 14 13 13 12 10 7 5 2 2 2 9 22 17 12 6 3 5 6 6 4 1 7 4 6 10 6 5 7 6 4 5 3 7 8 7 3 4 2 1 8 12 7 6 5 7 5 10 11 5 2 6 4 3 2 4 4 4 6 5 3 8 10 8 9 9 12 6 4 3 3 3 4 2 5 4 5 7 7 7 6 7 8 9
18 18 17 16 15 13 12 13 12 9 7 4 0 2 1 2 1 14 14 10 4 5 5 11 9 8 3 11 7 6 6 2 3 6 12 10 6 1 3 1 2 4 2 6 6 5 4 5 1 7 12 10 10 7 6 3 4 3 3 4 2 3 3 4 4 4 7 8 9 8 6 5 5 4 2 3 4 4 5 5 5 5 5 6 7 8 8 8
17 17 17 16 15 13 12 12 12 10 5 1 1 1 0 1 5 5 8 10 12 7 6 1 1 3 2 3 9 10 6 4 4 11 12 5 5 3 7 5 3 11 6 4 6 9 4 11 10 6 4 6 5 4 2 1 1 4 4 4 5 6 5 2 2 5 2 2 8 6 5 6 5 4 3 2 1 4 5 6 5 5 5 6 7 7 7 8
17 17 16 16 14 13 10 11 12 8 4 4 2 2 1 3 3 4 3 7 3 4 5 3 3 4 5 4 6 10 6 3 6 13 13 10 3 3 9 6 6 9 7 2 2 1 2 14 8 5 5 5 5 2 3 3 1 2 4 3 4 2 4 2 4 5 1 3 4 2 4 5 4 3 4 2 2 5 4 4 5 6 6 5 7 7 7 6
17 16 16 15 14 11 8 9 12 4 5 5 7 6 3 0 2 3 2 7 5 4 2 3 3 4 1 2 1 1 3 3 15 20 14 16 12 2 8 8 8 8 4 1 1 4 14 10 5 5 3 2 0 2 1 1 4 1 1 3 3 4 3 2 2 5 3 3 4 1 2 3 3 2 2 3 3 3 2 2 3 4 5 5 5 6 7 7
16 16 16 14 13 10 6 5 8 10 5 7 6 5 4 2 3 1 2 10 6 3 5 4 6 6 5 3 2 4 3 16 6 14 16 12 6 12 4 10 11 9 11 6 4 5 11 6 6 4 1 2 3 2 2 4 4 3 2 2 2 2 3 3 3 5 6 4 3 2 2 3 1 2 2 2 1 1 2 3 2 2 3 4 5 5 5 6
16 15 16 15 13 9 3 2 1 9 9 7 8 5 3 2 1 2 1 3 5 2 3 1 2 2 5 6 5 7 13 5 3 15 13 7 6 4 6 9 12 13 13 16 15 13 10 4 5 3 2 1 7 5 2 2 3 5 5 3 2 2 2 4 3 2 1 6 3 2 3 3 3 4 4 3 1 2 0 1 3 3 3 3 4 3 2 6
16 15 16 15 14 9 1 1 7 3 3 1 5 1 1 1 1 2 1 1 1 3 2 2 1 3 3 2 2 2 2 5 7 3 4 6 6 0 4 2 2 8 6 4 11 13 9 5 1 2 1 1 1 6 8 5 1 2 4 4 2 2 2 1 1 3 4 4 4 2 3 4 5 4 3 2 2 3 1 2 2 0 1 1 3 4 4 3
17 16 16 15 15 7 4 2 1 1 1 4 1 2 2 1 1 2 0 2 2 5 2 7 4 5 4 5 7 2 3 6 3 4 2 6 4 3 4 4 4 5 4 3 9 6 4 3 2 1 1 1 5 8 5 5 1 1 4 1 1 1 2 2 2 4 1 2 3 2 4 2 5 5 6 4 3 3 3 4 3 2 2 2 3 4 4 5
17 15 16 14 15 3 1 2 0 1 2 2 3 2 1 1 2 1 1 0 2 3 5 2 1 4 0 4 2 4 0 4 1 2 7 6 6 2 3 4 2 5 2 0 3 6 3 6 3 1 2 2 4 8 6 6 3 3 2 1 2 3 3 3 4 2 2 2 3 1 2 5 1 3 3 2 3 5 5 5 5 4 4 4 4 4 5 6
16 16 15 10 13 11 4 6 2 3 2 1 1 2 1 1 2 2 0 3 2 2 4 4 3 3 5 6 12 8 4 8 1 7 4 7 4 10 10 7 5 2 1 2 6 1 4 6 9 9 5 4 6 2 5 4 3 3 3 1 0 1 1 3 4 1 2 2 1 3 5 4 2 3 2 2 6 8 9 7 6 4 4 3 4 4 5 6
16 16 14 6 7 11 6 4 4 4 1 2 2 2 1 1 2 0 1 1 0 2 4 0 2 2 7 2 7 4 3 8 5 5 10 4 12 4 8 4 4 11 6 3 6 4 1 4 4 3 6 5 4 3 3 4 3 4 2 3 3 2 2 1 2 3 2 2 1 4 7 4 2 4 4 3 5 7 6 6 6 5 5 4 4 5 5 5
15 17 14 7 2 4 4 3 5 1 1 1 2 2 1 1 1 0 1 1 0 0 3 4 3 8 5 1 4 9 10 5 1 7 7 6 9 7 6 3 1 7 11 12 12 4 3 1 1 3 7 5 6 3 1 1 2 1 3 1 2 1 1 1 2 1 1 1 2 4 4 4 3 3 2 3 0 2 2 2 4 5 6 6 6 6 6 5
13 14 14 10 6 0 1 3 1 1 1 2 2 1 1 1 1 2 2 0 3 1 2 4 3 4 7 7 3 6 4 3 8 7 4 2 9 6 3 3 0 1 4 5 9 3 3 3 1 3 2 4 2 1 1 1 0 4 2 2 2 3 2 2 1 0 1 0 4 3 4 2 3 2 2 2 1 1 3 2 4 5 6 6 5 6 6 6
11 9 13 9 1 1 3 2 1 1 1 2 3 1 1 2 1 3 2 5 1 2 3 1 2 1 3 2 5 8 6 3 6 8 7 5 8 12 10 5 6 1 2 4 3 1 5 7 3 1 4 6 4 3 3 2 4 2 2 3 3 1 1 1 1 1 1 3 3 3 5 2 5 2 3 2 3 3 4 3 3 5 6 7 7 8 6 6
9 4 8 7 1 3 3 1 2 2 1 2 1 1 1 2 1 1 1 3 0 2 1 1 2 4 3 1 4 5 2 4 6 5 2 3 4 5 4 9 3 2 2 2 1 1 2 1 4 3 2 6 9 3 3 1 6 4 2 3 2 2 2 2 1 2 3 3 2 1 3 3 1 2 2 2 2 2 3 4 5 5 8 8 8 7 7 6
6 5 3 3 5 3 1 1 1 2 1 1 1 0 3 3 1 3 1 1 1 1 1 2 1 2 6 3 4 3 2 2 4 4 4 1 3 3 2 8 11 4 1 1 3 3 1 1 5 8 4 8 6 7 4 3 5 4 3 4 3 1 2 2 1 3 3 5 1 2 2 0 6 3 1 2 3 4 3 4 5 6 7 7 7 8 8 7
2 5 4 2 1 3 2 1 0 2 1 1 4 2 3 0 1 2 1 2 1 1 1 1 1 1 3 2 3 0 2 1 5 3 8 4 3 2 5 8 9 5 1 1 2 1 3 1 3 4 2 5 5 2 2 3 2 1 1 5 1 3 3 2 2 2 2 4 4 2 2 1 3 3 1 1 4 5 6 6 5 8 6 4 6 7 6 5
2 1 0 2 3 3 2 1 1 1 1 3 2 4 2 1 1 1 1 2 2 3 1 1 1 1 1 1 1 3 1 1 4 1 3 4 1 2 2 2 6 8 5 2 1 1 1 2 1 1 1 5 4 4 4 3 3 3 2 3 2 3 0 4 3 3 2 2 2 1 5 3 4 2 1 2 4 6 5 7 7 8 7 4 7 8 6 5
1 2 1 3 2 2 2 1 1 1 1 3 3 1 0 0 1 0 3 0 1 0 3 1 2 1 0 1 1 2 1 2 1 1 2 1 1 3 2 2 0 3 3 2 1 0 1 1 3 1 1 2 2 2 1 4 2 4 1 3 4 1 1 1 2 1 1 1 0 1 4 5 5 2 2 2 4 5 4 5 5 6 6 6 7 7 5 6
2 3 1 2 3 3 2 2 1 1 4 6 5 4 1 1 1 2 1 1 1 0 2 0 1 3 0 0 1 2 4 1 3 1 2 2 2 1 1 2 1 2 3 2 1 1 2 1 2 1 1 1 0 1 2 3 3 6 5 3 3 0 1 1 1 2 4 3 4 2 4 5 3 2 3 3 4 3 2 1 3 5 7 7 7 7 6 7
2 1 0 1 2 2 1 2 1 1 2 7 1 2 1 1 1 0 1 1 1 1 0 0 1 1 0 0 1 1 3 1 1 1 1 1 1 1 1 2 1 1 2 2 0 1 1 1 2 2 1 2 1 1 0 2 4 3 1 2 1 2 1 2 2 1 1 3 4 0 2 1 4 1 2 1 2 2 3 3 5 7 8 8 8 8 8 8
1 0 1 0 3 2 1 2 3 7 6 4 2 1 0 2 2 1 1 1 2 0 1 2 1 3 1 0 1 0 2 2 1 1 0 1 1 2 0 0 2 2 4 1 2 2 0 1 2 3 2 2 1 4 2 3 3 0 0 2 1 2 1 1 1 0 1 2 1 3 4 2 3 1 3 2 1 1 3 5 5 6 8 8 7 7 8 10
0 1 0 2 4 1 3 9 14 8 6 0 3 3 1 1 3 2 2 0 0 1 1 1 2 1 3 2 1 1 1 2 0 1 1 1 1 1 2 1 0 2 1 2 2 2 0 0 2 1 1 1 2 2 2 3 3 1 2 2 2 0 0 1 1 2 2 1 1 1 5 4 2 1 3 2 1 2 2 4 6 7 9 9 9 10 10 9
1 1 1 2 2 2 3 8 5 1 2 2 1 1 2 2 2 2 1 1 1 1 1 3 3 3 1 1 1 2 0 1 1 1 0 0 1 2 2 1 1 1 2 1 2 1 2 0 1 2 2 2 2 3 0 1 1 2 3 0 1 0 2 1 3 1 1 1 2 1 2 3 2 1 1 3 3 4 4 4 7 8 9 10 9 10 10 10
2 1 0 2 4 1 10 6 0 3 4 0 2 3 2 2 2 1 1 1 0 1 1 3 1 2 0 0 2 1 2 1 0 2 2 0 2 0 1 1 2 2 2 3 3 2 3 0 2 1 2 2 2 1 1 1 1 1 0 0 1 1 1 2 2 1 1 2 2 2 3 3 3 2 2 3 4 4 4 5 8 9 10 10 10 10 11 10
0 1 2 2 1 2 2 0 2 1 1 1 2 3 2 1 1 1 1 2 0 1 1 1 1 3 3 0 2 1 2 0 1 1 1 1 2 2 0 2 3 1 2 2 0 2 1 2 0 3 0 2 1 1 1 1 1 1 1 2 1 2 4 2 3 0 2 6 2 2 4 2 3 1 3 2 4 6 7 6 6 8 9 8 9 9 8 9
1 0 1 5 7 4 1 0 7 5 2 4 2 4 1 2 3 2 1 2 0 1 2 2 1 2 3 1 3 2 1 1 1 2 2 2 2 1 0 2 3 1 1 1 0 1 1 1 0 1 2 3 3 4 3 1 1 1 0 1 3 5 5 2 1 1 3 2 3 2 5 6 3 5 4 6 6 7 7 7 5 5 7 7 8 8 9 8
1 0 2 3 8 7 6 2 4 6 7 4 4 0 1 2 1 0 1 2 1 1 2 4 0 1 3 1 2 1 1 1 0 2 2 1 2 1 2 3 1 1 2 2 1 2 2 2 1 1 2 3 2 2 2 2 0 3 3 5 6 5 3 1 1 2 4 4 6 10 7 13 15 13 8 9 9 9 10 10 10 10 10 9 8 8 8 8
0 2 1 2 3 6 3 2 2 2 4 3 2 3 2 1 1 1 1 0 2 1 2 1 1 3 1 1 2 2 1 0 2 2 1 2 1 2 2 1 3 2 4 3 3 0 1 1 2 4 5 6 2 4 2 2 6 6 6 6 7 8 8 8 7 4 7 4 6 4 4 4 12 11 10 11 12 11 9 10 11 10 9 9 9 10 10 9
0 1 1 1 0 1 1 2 2 5 3 2 1 1 4 3 2 2 0 2 1 2 1 1 1 3 2 2 5 1 1 0 0 2 2 2 3 1 2 1 1 4 5 0 3 3 1 1 2 3 5 5 7 8 5 3 8 7 5 6 7 10 10 12 12 7 9 5 7 3 4 7 15 13 13 13 11 12 12 11 10 10 10 9 9 9 10 10
3 2 2 2 1 0 1 0 2 6 6 2 2 1 3 3 5 2 2 3 0 1 3 2 4 4 2 1 1 1 3 0 0 1 3 3 3 4 1 1 1 3 1 1 1 2 1 0 2 2 4 7 8 4 2 7 4 4 10 11 11 10 13 15 12 9 11 13 13 13 14 18 18 17 14 13 11 11 11 7 7 8 8 8 8 9 9 9
2 2 1 4 5 3 0 1 1 1 3 0 3 2 6 7 7 3 2 2 2 2 2 2 5 4 2 2 1 2 5 1 3 2 4 5 1 3 2 1 3 2 2 0 1 0 1 0 2 3 1 2 0 2 2 4 3 7 8 9 9 10 10 13 11 11 8 13 17 16 15 17 16 10 9 9 7 7 8 8 8 7 6 7 9 9 9 9
2 1 3 7 3 0 0 1 0 1 1 1 1 2 3 5 5 5 3 1 2 3 5 2 9 6 2 1 2 0 3 2 3 4 3 1 1 2 0 1 5 4 2 0 0 1 1 1 2 1 3 1 1 2 3 3 5 8 13 7 8 8 7 8 10 10 10 11 3 3 6 9 10 2 3 4 6 8 9 8 8 7 6 8 9 9 9 9
2 1 1 2 3 2 0 1 0 1 2 1 2 7 4 9 5 5 4 0 2 1 1 3 7 4 1 2 1 2 2 3 4 3 4 4 6 5 4 4 2 5 5 2 2 1 1 1 1 0 2 1 1 3 7 4 3 3 4 5 12 10 6 3 8 6 12 7 4 5 7 3 6 4 9 8 3 8 11 6 6 9 10 10 9 8 8 9
Wind_Direction
9 7 6 4 3 3 3 358 353 351 347 343 342 344 342 338 336 331 326 320 317 311 327 345 302 279 286 262 234 215 292 302 15 31 37 11 347 343 341 342 343 331 329 324 52 91 50 48 37 28 58 47 349 33 346 31 350 339 53 88 70 62 68 13 39 42 66 109 90 97 112 114 100 117 109 141 69 79 77 72 72 67 60 65 72 79 104 127
9 7 3 3 2 358 356 356 353 348 345 342 344 345 346 342 338 339 338 339 347 3 10 20 22 38 83 121 250 312 320 335 1 30 32 356 347 342 342 340 344 342 320 41 24 41 78 57 44 57 58 54 347 46 355 43 358 52 71 67 82 47 62 358 15 23 86 94 101 92 69 73 73 349 129 101 76 87 82 70 80 80 80 84 80 86 90 99
8 4 3 360 358 358 356 354 352 350 347 344 346 349 348 344 342 342 338 347 1 14 33 47 51 50 62 85 56 333 318 268 24 19 351 353 345 338 339 339 344 346 1 60 32 62 78 76 63 74 48 76 17 48 51 25 26 18 77 78 70 85 83 51 46 65 68 113 107 99 74 68 49 58 345 100 83 64 62 84 80 70 87 83 81 77 75 75
7 4 0 358 358 358 356 355 354 353 350 348 345 350 349 347 340 340 342 347 4 5 5 39 56 43 18 20 35 351 348 306 45 339 346 347 340 338 335 337 342 351 303 51 78 74 336 70 59 70 73 64 52 53 50 353 61 355 62 75 106 169 91 38 44 47 68 73 96 96 105 72 46 47 346 129 87 62 62 35 57 91 87 84 84 83 72 74
5 3 359 360 358 359 358 357 354 352 352 349 347 349 347 346 341 338 339 343 342 354 357 325 348 25 43 69 107 31 46 346 19 343 340 339 338 336 332 335 340 356 79 135 112 69 48 69 82 55 56 77 54 69 44 49 71 90 61 66 94 103 87 49 38 30 57 59 92 86 79 70 106 43 38 63 86 70 42 34 53 64 71 78 87 87 99 92
6 1 0 356 357 356 356 356 356 353 348 345 348 348 347 345 344 343 340 339 338 348 348 344 309 32 23 36 74 130 183 62 328 324 338 335 330 335 329 331 338 320 196 95 85 66 86 36 75 45 53 64 40 74 46 60 258 91 70 60 60 56 98 33 44 22 298 87 71 74 77 100 94 76 50 61 67 72 30 25 54 59 63 76 88 113 106 83
4 359 357 355 354 352 351 350 349 347 346 347 348 352 348 346 346 342 345 346 340 354 6 18 44 200 53 22 47 68 68 118 319 322 333 333 327 324 328 317 329 34 80 79 78 80 81 80 82 92 94 80 60 82 73 65 66 93 98 85 64 74 81 71 71 56 69 79 78 95 137 100 113 80 54 69 67 62 51 39 61 62 63 85 106 82 61 64
3 358 355 354 351 348 347 348 347 345 344 346 351 357 358 359 360 360 355 357 353 16 39 52 54 46 181 110 284 60 54 12 333 334 330 330 327 330 308 10 358 37 51 45 53 91 78 71 91 86 55 89 103 93 92 79 56 91 95 91 96 77 79 85 80 83 87 89 106 107 86 72 82 92 88 66 62 50 59 70 74 85 91 80 70 55 47 67
2 357 352 351 346 342 345 349 351 344 345 348 355 359 6 7 6 355 9 20 9 13 33 38 39 45 203 86 211 68 21 341 321 327 337 336 327 324 28 20 333 56 57 54 35 157 95 32 61 331 133 101 83 106 263 88 57 68 104 109 107 89 85 94 94 87 95 97 96 91 89 95 103 98 66 65 52 34 33 77 46 60 66 48 35 22 349 339
1 355 349 347 343 344 345 350 351 349 346 353 0 3 8 11 1 16 21 27 16 14 22 32 32 341 38 227 70 75 24 313 334 339 341 339 318 14 25 13 350 42 55 22 47 52 73 101 99 96 103 81 86 51 82 94 122 129 107 97 91 83 81 47 86 88 73 59 30 99 94 86 132 246 101 72 29 353 357 49 31 4 38 24 5 327 300 289
358 353 349 345 343 345 346 352 356 355 350 353 1 5 6 9 17 15 21 27 25 15 20 15 13 349 64 43 66 78 346 341 352 343 340 342 351 31 15 0 359 26 57 42 44 5 53 104 113 132 65 100 91 55 77 105 132 122 121 103 92 86 62 45 62 54 246 62 349 87 96 79 46 55 56 3 345 334 340 22 26 26 16 7 347 318 298 276
357 352 349 344 343 349 350 353 357 356 353 347 352 6 10 15 17 16 6 29 30 21 21 6 354 256 58 66 50 41 356 336 338 343 342 356 9 21 359 12 13 26 58 68 40 19 334 42 303 269 124 165 80 101 85 122 113 137 240 97 92 78 56 25 17 360 330 80 354 302 141 59 35 45 13 358 334 321 338 17 16 8 350 335 318 305 290 299
355 352 351 347 345 346 351 353 355 357 351 348 354 8 11 20 17 16 8 17 19 17 8 8 328 58 267 63 37 290 343 336 330 345 5 356 331 186 54 32 29 31 36 71 46 354 51 38 104 83 68 107 125 35 149 164 96 183 45 92 137 101 59 20 5 3 54 76 329 179 208 60 45 36 15 9 340 322 301 27 9 351 333 322 309 306 305 302
356 354 353 349 345 342 345 353 354 356 351 346 356 7 21 24 12 16 21 39 22 10 19 17 20 43 60 90 122 277 301 279 332 16 0 346 7 6 26 19 29 27 19 57 52 10 44 47 77 90 61 64 101 133 117 123 294 116 344 318 30 308 68 40 22 353 169 135 335 168 251 112 69 33 23 7 334 332 31 14 4 353 342 339 338 324 320 314
355 354 352 348 344 340 340 352 355 353 351 340 354 20 39 36 33 18 14 20 5 350 22 287 23 83 39 93 212 356 276 216 19 8 359 2 2 334 5 343 11 17 16 44 56 11 13 273 60 57 64 348 116 152 91 94 65 50 236 62 26 40 98 61 25 24 12 332 346 284 127 110 68 29 15 351 318 325 14 10 14 4 357 352 352 347 336 325
353 354 351 347 344 341 340 347 353 349 348 330 331 34 45 47 38 28 34 26 350 9 267 48 355 64 99 61 23 244 13 17 354 324 336 15 11 5 303 291 281 26 19 58 120 302 20 45 61 58 88 102 43 92 141 126 69 35 24 90 48 19 68 192 56 18 9 292 2 337 118 143 101 28 25 338 280 321 357 25 21 15 16 15 11 3 347 344
353 353 350 347 343 341 340 342 348 347 336 318 313 320 52 54 34 64 55 41 5 344 68 21 330 257 57 280 234 0 3 339 294 327 348 43 14 338 320 27 23 342 354 205 30 36 0 45 239 105 48 57 329 325 180 65 73 58 23 75 19 26 296 84 170 34 357 4 48 31 94 51 28 14 30 25 324 305 45 40 40 42 36 31 27 28 21 19
352 349 349 344 342 341 337 343 344 346 335 315 284 358 332 26 51 39 12 9 0 85 113 130 196 56 113 63 18 331 328 284 345 311 262 3 29 355 32 26 330 285 343 26 30 27 334 55 346 104 69 32 26 5 53 72 29 34 67 117 109 87 45 49 14 5 347 41 72 80 80 82 66 81 67 15 1 36 68 58 51 48 43 34 34 35 34 33
348 349 345 343 340 341 337 344 348 347 344 311 38 247 244 258 58 58 32 353 44 9 40 357 1 72 56 324 293 277 294 291 269 345 350 6 329 307 69 162 328 48 34 54 9 1 359 103 168 46 30 13 15 8 49 69 14 63 2 64 85 103 57 41 11 11 351 36 53 45 85 90 87 82 74 61 33 78 82 81 64 51 40 34 34 36 34 32
347 346 344 340 340 339 340 344 350 359 343 88 7 201 167 24 12 27 354 27 58 48 84 72 317 68 87 0 341 309 260 326 347 7 12 10 309 309 47 358 60 61 47 57 323 43 306 68 40 38 18 349 344 350 340 28 41 102 93 95 80 102 97 111 47 358 330 345 52 58 85 89 80 52 42 45 142 93 79 68 57 42 34 34 33 34 30 31
347 345 342 340 338 338 341 344 0 5 43 91 78 59 275 145 111 87 4 60 166 12 55 63 35 37 52 332 329 353 5 323 61 13 17 305 199 306 355 345 7 65 37 307 55 329 265 72 37 18 337 324 321 330 149 143 26 64 111 122 98 39 100 58 10 354 60 285 92 39 91 76 70 57 49 56 122 69 53 55 51 41 39 40 27 24 22 11
346 343 341 338 337 337 342 347 12 33 34 87 61 88 110 314 345 13 167 78 35 11 34 92 232 58 203 243 73 318 224 290 18 8 357 4 360 55 350 62 52 67 334 259 207 54 52 59 27 359 332 248 314 162 266 117 125 177 267 129 129 81 90 110 55 16 19 271 94 256 130 86 69 48 60 49 42 63 14 359 3 4 30 29 21 10 8 1
346 340 342 336 337 337 340 353 21 32 31 32 70 94 90 64 330 329 274 124 85 336 30 22 44 27 28 172 48 208 18 41 345 2 356 339 8 50 307 55 48 64 43 6 97 102 73 50 9 13 256 237 112 71 127 87 69 59 170 216 70 78 267 130 61 23 34 4 128 189 180 119 124 137 87 45 7 5 318 291 299 306 349 0 357 355 337 334
345 345 346 344 337 335 334 20 275 34 41 63 77 70 88 44 300 268 106 64 112 349 29 37 59 94 46 3 345 3 54 27 350 347 351 2 42 275 41 46 67 58 55 53 50 71 78 45 355 307 347 343 87 59 31 232 79 52 33 50 111 141 40 342 84 13 74 74 67 187 218 185 180 180 162 133 159 236 227 237 227 211 251 288 271 266 294 321
345 345 348 341 340 333 192 196 39 50 217 7 65 83 112 80 269 319 169 134 103 95 172 149 260 78 24 247 8 210 91 131 54 266 327 15 4 269 64 199 12 44 80 63 85 78 65 27 320 312 59 359 260 56 27 327 125 108 59 16 8 36 356 11 309 235 186 133 68 306 258 170 157 191 212 147 199 188 160 252 182 280 0 323 337 337 322 293
344 347 350 346 345 350 250 43 50 157 128 51 48 116 131 155 293 290 80 72 70 328 186 18 197 30 191 14 9 27 239 66 305 3 310 14 225 40 194 58 351 137 172 82 80 73 58 15 352 339 63 80 87 80 14 318 315 310 56 347 34 338 306 253 196 233 249 350 71 282 330 346 148 209 198 185 222 231 195 234 229 237 252 287 298 305 319 324
346 342 353 351 349 331 16 111 76 207 75 80 83 122 132 216 265 271 259 335 60 352 12 340 217 40 102 352 290 228 7 30 2 344 26 25 33 256 83 18 103 60 26 63 217 60 341 24 39 118 283 323 34 40 28 358 306 61 68 312 285 236 233 205 198 251 52 111 159 255 1 299 271 148 153 158 253 237 239 229 230 234 253 286 297 299 305 317
344 343 354 6 14 26 89 114 127 53 43 47 71 85 143 288 196 253 265 66 0 344 7 344 31 321 47 326 1 52 94 294 334 32 73 310 265 47 69 54 51 38 123 263 92 110 28 20 17 17 0 31 40 14 340 332 342 49 40 288 92 205 144 151 201 162 75 278 207 113 4 252 252 104 140 193 250 241 243 233 226 231 245 266 303 321 314 309
347 342 349 11 57 73 56 77 80 88 62 87 99 148 113 183 228 1 208 116 349 67 173 190 159 63 354 281 43 37 27 4 61 321 332 242 30 255 62 61 106 89 73 335 118 152 87 52 11 313 15 21 333 347 326 337 343 96 84 103 89 104 106 283 178 160 147 274 290 43 3 322 348 125 173 206 256 266 262 233 222 225 238 261 288 310 319 325
349 349 342 349 185 21 13 48 55 74 140 102 138 155 196 218 257 236 31 27 305 317 23 301 5 328 317 22 68 12 36 7 115 314 19 57 348 40 77 334 287 55 66 52 73 67 113 66 334 356 31 328 299 331 329 267 6 76 187 205 144 155 113 112 40 190 199 234 95 67 33 12 302 121 167 183 319 351 357 205 217 229 245 251 258 275 293 307
354 354 356 346 62 86 280 63 51 106 128 161 149 186 208 52 120 96 87 215 37 342 222 34 1 335 15 34 44 3 124 12 1 348 32 340 19 51 36 185 317 166 104 92 75 73 123 161 161 73 229 314 216 192 94 242 269 179 168 235 167 169 170 190 132 254 275 21 108 63 14 352 286 78 152 229 69 267 277 284 233 232 243 258 274 287 291 296
353 5 19 38 47 259 29 55 63 140 167 193 222 168 141 246 37 52 141 348 212 2 33 333 86 328 19 252 74 1 1 352 29 23 30 15 32 37 13 43 342 222 61 17 66 179 67 47 323 277 170 353 2 277 152 195 189 201 211 203 250 61 225 189 149 279 8 340 104 88 355 264 236 355 49 80 256 234 236 276 277 266 266 268 275 282 294 300
352 348 47 40 344 52 53 49 91 159 187 227 210 45 66 86 65 269 273 338 83 338 122 220 358 360 302 265 41 343 289 36 326 51 315 21 80 91 70 46 307 314 36 13 330 32 123 242 23 24 193 21 341 358 12 155 11 358 355 334 318 3 29 355 6 205 269 129 89 167 28 252 301 123 103 55 7 281 256 249 271 270 271 279 285 296 303 304
9 7 87 22 64 56 67 66 135 162 250 231 246 61 45 55 208 57 175 290 62 324 2 1 333 221 22 61 14 326 75 18 348 4 356 21 20 44 73 56 19 357 20 63 31 7 239 144 49 349 39 344 27 37 2 331 326 30 270 328 34 52 18 343 318 333 346 305 332 116 267 32 329 89 114 347 322 303 275 275 273 270 270 276 286 288 282 278
65 50 100 115 105 72 37 76 208 253 268 266 56 79 94 199 222 181 188 196 217 288 132 262 357 50 45 72 354 308 315 80 37 336 22 13 33 19 5 356 7 5 257 268 98 274 32 353 67 24 326 323 30 9 300 321 251 222 319 256 330 50 314 314 21 303 334 325 301 148 300 344 301 89 304 281 277 259 254 258 256 267 255 260 279 273 276 302
237 6 328 48 19 28 28 337 283 250 226 62 74 41 57 163 155 153 103 54 97 173 132 151 56 83 29 91 104 33 181 315 14 43 46 37 341 28 342 350 359 3 354 30 328 4 213 110 30 66 88 33 27 343 29 303 2 15 253 41 49 346 264 110 126 99 197 211 226 358 272 191 211 144 260 274 248 259 240 260 258 268 273 264 269 274 279 303
14 313 186 9 42 21 331 343 256 212 91 89 88 92 92 320 336 77 13 335 57 351 127 228 33 3 86 22 329 352 38 272 19 332 60 188 102 35 22 62 308 350 18 333 106 2 317 25 93 276 153 80 344 306 347 12 290 275 35 77 94 72 337 313 330 182 214 282 61 101 319 323 328 62 168 208 238 235 252 255 279 280 275 277 278 281 290 301
15 49 46 350 352 339 293 263 235 51 80 78 59 96 263 86 3 5 51 198 180 317 112 68 93 309 211 267 37 337 340 278 27 6 91 329 87 286 345 341 115 357 333 294 317 60 311 238 133 60 323 68 172 240 232 105 12 30 73 113 272 31 272 109 235 5 341 322 312 289 289 241 266 358 161 203 233 248 214 232 281 319 325 321 311 305 295 310
79 64 317 37 9 346 325 266 163 22 68 64 139 125 253 18 94 63 73 10 352 221 121 25 88 3 268 172 84 229 304 67 68 64 125 52 78 88 358 316 78 173 353 274 17 125 242 302 121 155 225 348 297 285 25 21 91 60 234 126 20 278 48 323 52 263 232 291 326 22 359 46 195 348 235 238 265 257 248 281 327 326 319 315 311 308 309 310
0 40 304 35 347 345 291 234 70 44 57 92 165 69 51 113 108 158 199 275 62 306 88 122 244 115 348 19 310 40 23 38 58 76 25 16 84 9 257 102 331 355 4 319 84 285 31 310 334 105 260 258 193 8 56 8 352 29 199 59 126 58 281 142 78 349 282 285 267 316 325 23 82 197 223 251 320 289 286 294 304 304 308 307 298 296 300 305
148 102 265 16 336 60 269 33 44 29 78 20 42 124 333 135 159 106 119 328 142 335 291 119 165 118 184 148 198 328 87 63 20 98 72 118 300 178 87 15 97 350 344 196 111 30 300 193 311 341 205 86 58 32 4 348 342 335 334 48 22 251 159 280 220 100 2 266 226 249 288 299 7 100 251 309 54 314 281 269 282 289 300 303 302 301 304 302
82 40 296 26 324 212 110 53 32 319 83 99 92 169 107 146 102 93 97 111 316 97 317 117 37 107 132 62 3 149 136 92 77 115 288 59 127 354 116 130 277 287 285 62 37 42 346 24 315 296 48 38 40 70 250 318 254 322 306 63 342 333 279 292 312 146 210 113 346 13 294 282 78 91 267 266 277 272 267 264 272 286 295 297 297 298 298 295
50 252 92 350 3 19 64 77 102 48 60 22 288 32 344 43 79 22 122 332 200 315 32 49 49 78 52 303 174 80 269 97 294 41 95 114 131 277 81 242 246 212 233 116 185 138 197 9 295 144 86 61 170 156 203 308 281 242 179 74 235 262 342 306 313 68 233 110 211 208 245 245 116 133 241 250 264 276 261 240 269 289 296 296 296 295 297 299
180 274 339 182 98 174 84 141 114 48 98 325 93 75 3 66 69 116 97 24 41 152 99 140 162 351 102 125 117 116 245 129 331 107 134 215 144 139 296 308 230 224 248 99 233 160 208 114 59 307 242 158 184 181 200 347 252 248 263 125 331 88 73 120 108 19 264 201 223 189 272 312 103 210 200 247 261 266 276 262 226 276 293 296 299 298 295 296
116 222 249 306 2 33 107 169 129 134 158 128 118 90 90 59 35 357 315 105 317 85 164 78 30 150 89 122 81 116 344 342 132 337 12 153 106 342 274 335 285 264 8 289 287 197 217 147 199 350 351 341 337 328 338 327 186 159 277 153 195 168 143 179 200 141 259 111 152 222 250 268 130 186 219 254 263 287 301 316 306 249 270 290 296 298 301 304
43 136 316 356 16 43 77 11 64 128 136 154 92 165 103 104 98 97 251 87 323 114 18 117 100 169 104 197 88 38 70 350 339 167 184 175 191 224 27 337 326 313 192 79 6 266 134 90 158 176 271 296 336 352 36 72 156 234 174 220 192 207 218 311 47 193 240 145 206 229 243 294 295 296 307 313 312 315 319 322 322 321 314 309 305 305 306 304
123 81 9 326 355 56 75 33 62 86 155 198 113 172 106 90 133 98 231 264 196 253 99 31 185 173 186 108 140 131 235 230 42 117 184 151 89 45 42 339 310 302 276 208 347 60 99 188 139 150 234 245 306 237 194 225 253 258 239 231 202 182 192 195 204 230 126 124 260 218 239 246 277 295 305 306 307 310 312 314 316 314 311 308 304 300 295 294
185 150 74 178 108 0 44 37 58 91 53 62 86 50 140 137 177 142 29 23 122 255 164 117 180 327 171 165 151 138 185 326 179 156 114 350 134 94 152 3 284 333 327 342 320 267 252 223 156 150 241 246 245 245 180 226 239 255 237 235 211 197 182 208 225 212 162 226 255 107 184 262 279 288 292 296 300 305 306 304 302 299 291 288 292 295 298 299
56 113 118 270 140 252 2 255 84 109 83 89 106 123 161 168 164 176 148 129 301 187 272 149 215 170 157 78 220 108 167 127 265 84 195 161 189 144 157 18 223 344 15 67 6 305 285 248 150 217 264 268 274 276 187 218 244 254 242 232 234 202 208 216 231 213 207 241 260 283 290 282 281 280 281 288 300 297 297 298 286 281 288 298 296 296 297 302
198 142 146 3 77 113 331 18 76 74 90 281 122 221 155 172 151 169 279 187 143 224 125 278 121 111 134 163 160 176 220 16 352 33 167 128 110 234 213 216 130 21 355 149 343 353 303 267 129 176 271 272 342 61 149 214 220 269 246 232 226 226 230 228 242 246 238 266 267 272 276 280 274 264 268 281 288 290 282 280 288 293 293 296 298 297 299 303
61 6 138 130 76 59 104 357 151 89 115 247 113 188 135 189 166 155 117 333 335 160 179 209 134 111 25 357 63 12 23 40 53 19 178 180 340 102 168 128 139 142 172 206 300 316 310 247 56 232 312 352 279 191 213 197 248 266 288 260 213 190 207 224 219 220 193 226 223 242 257 254 267 285 278 242 265 281 289 299 311 309 309 301 296 298 301 308
101 97 4 102 100 276 239 81 342 106 201 195 120 169 172 192 136 157 100 211 135 341 335 130 151 111 74 103 163 62 47 95 88 79 89 83 102 93 63 82 96 166 172 162 15 219 308 175 208 305 303 266 249 240 304 278 240 273 255 229 183 195 202 257 243 229 217 197 194 228 245 244 307 313 307 296 280 304 306 315 319 313 309 305 295 292 295 300